This demonstration page uses our WeatherBlox Daily Observations layout. Learn more.

Left ArrowRight Arrow

41.86663, -103.66717

Hourly Observations for May 13, 2021

Temp ( °F °C ) Dew Point ( °F °C ) Humidity (%) Winds ( mph kmh ) Pressure ( in mb ) Visibility ( mi km ) Precip ( " mm )
12:53 am 00:53 Clear 43 6.1 39 3.9 86 86 E 7 11 30.2 1023 10 16.0934 N/A
1:53 am 01:53 Clear 41 5 38 3.3 89 89 E 8 13 30.19 1022 10 16.0934 N/A
2:53 am 02:53 Mostly Clear 40 4.4 37 2.8 89 89 E 7 11 30.18 1022 10 16.0934 N/A
3:53 am 03:53 Mostly Clear 41 5 38 3.3 89 89 ENE 7 11 30.19 1022 10 16.0934 N/A
4:53 am 04:53 Partly Cloudy 40 4.4 36 2.2 86 86 E 7 11 30.15 1021 10 16.0934 N/A
5:53 am 05:53 Mostly Cloudy 39 3.9 36 2.2 89 89 N N/A 30.15 1021 8 12.87472 N/A
6:53 am 06:53 Cloudy 44 6.7 40 4.4 85 85 ESE 6 9 30.14 1021 10 16.0934 N/A
7:53 am 07:53 Mostly Cloudy 49 9.4 44 6.7 83 83 ESE 6 9 30.14 1021 10 16.0934 N/A
8:53 am 08:53 Mostly Cloudy 53 11.7 44 6.7 72 72 SE 7 11 30.11 1020 10 16.0934 N/A
9:53 am 09:53 Mostly Sunny 58 14.4 45 7.2 62 62 VRB 5 7 30.09 1019 10 16.0934 N/A
10:53 am 10:53 Sunny 64 17.8 45 7.2 50 50 N N/A 30.07 1018 10 16.0934 N/A
11:53 am 11:53 Sunny 70 21.1 43 6.1 38 38 VRB 7 11 30.02 1017 10 16.0934 N/A
12:53 pm 12:53 Sunny 73 22.8 38 3.3 28 28 S 9 15 29.98 1015 10 16.0934 N/A
1:53 pm 13:53 Sunny 75 23.9 34 1.1 22 22 VRB 6 9 29.97 1015 10 16.0934 N/A
2:53 pm 14:53 Sunny 76 24.4 29 -1.7 18 18 undefined N/A 29.95 1014 10 16.0934 N/A
3:53 pm 15:53 Sunny 77 25 30 -1.1 18 18 W 8 13 29.92 1013 10 16.0934 N/A
4:53 pm 16:53 Sunny 77 25 31 -0.6 18 18 WNW 7 11 29.9 1013 10 16.0934 N/A
5:53 pm 17:53 Sunny 76 24.4 31 -0.6 19 19 WNW 12 19 29.91 1013 10 16.0934 N/A
6:24 pm 18:24 Sunny 73 23 37 3 27 27 NNE 18 30 29.76 1008 10 16.0934 N/A
6:53 pm 18:53 Sunny 70 21.1 38 3.3 31 31 NNE 10 17 29.93 1014 10 16.0934 N/A
7:53 pm 19:53 Sunny 59 15 42 5.6 54 54 ENE 22 35 30 1016 10 16.0934 N/A
8:53 pm 20:53 Clear 54 12.2 44 6.7 69 69 ENE 9 15 30.04 1017 10 16.0934 N/A
9:53 pm 21:53 Clear 50 10 44 6.7 80 80 NE 7 11 30.07 1018 10 16.0934 N/A
10:53 pm 22:53 Clear 50 10 44 6.7 80 80 NE 9 15 30.07 1018 10 16.0934 N/A
11:53 pm 23:53 Clear 48 8.9 43 6.1 83 83 NE 7 11 30.07 1018 10 16.0934 N/A

Powered by AerisWeather